Snowfall_Accumulation
0.2 0.2 0.1 0.0 0.1 0.1 0.1 0.2 0.5 0.6 0.3 0.2 0.1 0.1 0.0 0.0 0.0 0.0 0.0 0.0 0.0 0.0 0.0 0.0 0.0 0.0 0.0 0.0 0.0 0.0 0.0 0.0 0.0 0.0 0.0 0.0 0.0 0.0
0.2 0.2 0.1 0.0 0.1 0.1 0.2 0.2 0.2 0.4 0.3 0.2 0.2 0.0 0.0 0.0 0.0 0.1 0.0 0.0 0.0 0.1 0.1 0.0 0.0 0.0 0.0 0.1 0.0 0.0 0.0 0.0 0.0 0.0 0.0 0.0 0.0 0.0
0.3 0.3 0.1 0.2 0.1 0.1 0.2 0.2 0.3 0.4 0.5 0.2 0.1 0.1 0.1 0.1 0.2 0.1 0.1 0.1 0.0 0.1 0.2 0.2 0.2 0.2 0.1 0.1 0.1 0.1 0.1 0.0 0.0 0.0 0.0 0.0 0.0 0.0
0.5 0.3 0.3 0.2 0.1 0.1 0.2 0.3 0.4 0.4 0.8 0.8 0.3 0.3 0.2 0.2 0.1 0.2 0.1 0.1 0.1 0.1 0.2 0.2 0.2 0.3 0.3 0.3 0.2 0.2 0.1 0.1 0.1 0.0 0.0 0.0 0.0 0.0
0.6 0.7 0.5 0.4 0.6 0.4 0.5 0.5 0.6 0.5 0.9 1.5 0.8 0.4 0.4 0.2 0.2 0.2 0.1 0.1 0.1 0.0 0.0 0.1 0.1 0.3 0.3 0.4 0.4 0.3 0.3 0.3 0.2 0.1 0.1 0.0 0.0 0.0
1.4 1.2 1.3 1.1 1.3 1.2 1.0 1.1 1.0 1.1 1.1 1.5 1.8 1.5 0.8 0.5 0.4 0.8 0.4 0.3 0.2 0.0 0.0 0.1 0.2 0.3 0.3 0.2 0.2 0.3 0.3 0.4 0.4 0.4 0.3 0.3 0.2 0.1
1.6 1.7 1.6 1.1 0.7 0.7 0.9 1.4 1.4 1.7 2.3 2.8 2.6 2.1 1.4 1.0 0.8 0.7 1.1 0.6 0.4 0.1 0.1 0.1 0.1 0.1 0.0 0.0 0.1 0.0 0.1 0.4 0.6 0.6 0.4 0.4 0.4 0.3
1.8 1.9 1.6 1.5 1.0 1.0 0.9 1.2 1.8 3.0 3.9 4.1 3.5 2.5 1.5 0.9 0.9 1.3 2.6 2.8 2.6 0.4 0.4 0.2 0.1 0.1 0.0 0.1 0.1 0.2 0.5 0.7 0.8 0.7 0.7 0.6 0.5 0.4
1.8 1.7 1.3 1.1 1.2 0.9 1.0 1.4 2.0 2.2 2.8 2.9 2.7 1.9 1.8 1.5 2.4 3.7 3.6 4.0 3.0 1.2 0.7 0.9 0.2 0.4 0.1 0.1 0.2 0.2 0.4 0.5 0.7 0.7 0.7 0.6 0.5 0.5
1.3 1.2 1.4 1.0 1.0 1.4 2.2 2.7 1.9 1.4 1.2 1.3 1.3 1.5 1.4 1.6 2.5 3.9 3.6 3.1 1.4 0.8 0.6 2.8 1.0 0.6 0.1 0.2 0.2 0.3 0.5 0.6 0.9 0.9 0.9 0.9 0.8 0.7
1.1 0.9 1.3 1.0 1.1 2.5 3.5 3.3 1.9 1.1 0.8 1.1 1.5 1.5 1.2 1.2 1.3 3.0 4.8 5.6 4.1 1.7 1.0 2.6 1.7 1.2 0.5 0.2 0.2 0.5 0.8 0.8 1.0 1.0 1.0 0.9 1.0 1.0
0.9 0.9 0.9 1.1 1.9 3.2 3.4 2.9 2.1 1.6 2.0 1.6 1.1 0.7 0.7 0.7 0.7 3.1 7.5 11.0 8.5 5.3 1.4 3.0 3.4 3.5 4.0 0.8 0.3 0.4 0.6 0.7 0.8 1.0 1.0 1.1 1.1 1.3
1.6 1.1 0.8 1.5 2.5 2.8 2.3 1.7 1.9 2.7 2.3 1.6 1.3 0.9 0.9 0.9 1.2 1.8 4.0 10.4 13.1 8.7 2.9 7.1 8.2 4.9 7.1 3.6 0.8 0.7 1.3 2.0 2.2 1.9 1.3 1.1 1.2 1.7
2.1 1.7 1.9 2.6 2.4 1.6 1.1 1.2 1.8 1.7 1.2 1.5 1.7 1.6 1.6 1.7 1.5 1.7 2.4 4.0 7.0 8.2 5.2 8.9 13.5 9.8 11.1 9.5 5.9 4.2 2.7 3.6 5.3 5.7 3.3 1.9 1.3 1.0
2.1 2.4 2.7 2.1 1.4 1.0 0.9 1.1 1.2 1.1 2.0 3.0 2.7 2.3 1.6 1.8 1.9 2.1 2.2 2.6 3.4 4.0 4.5 6.0 9.9 10.6 12.6 12.8 9.8 7.4 7.3 6.7 7.2 8.2 5.6 3.5 2.5 1.3
2.3 2.3 1.5 1.1 1.1 1.0 1.1 1.0 1.0 1.4 2.6 3.9 3.5 2.5 2.2 2.2 2.5 3.0 4.4 4.8 5.6 4.7 4.3 5.0 6.8 9.9 11.7 9.6 10.4 9.7 9.7 12.6 10.0 7.1 4.5 3.4 2.2 1.8
2.8 1.8 1.2 1.1 1.3 1.3 1.4 1.1 1.2 1.4 2.0 3.0 3.9 4.0 3.4 3.2 3.3 3.9 5.9 7.3 8.2 6.9 6.0 4.7 4.5 5.4 7.3 8.5 9.4 8.7 10.0 11.9 9.2 6.1 4.8 5.0 2.6 1.7
2.5 2.5 2.3 2.2 2.2 2.1 2.1 2.0 1.7 1.9 2.8 4.2 4.9 5.1 5.4 5.2 5.2 4.9 6.7 8.8 8.8 7.7 7.2 5.9 5.8 5.8 5.4 5.2 7.2 9.9 10.6 11.3 8.0 6.0 5.5 7.1 6.2 2.8
3.0 3.2 3.0 2.9 2.7 2.7 2.7 3.0 3.1 2.6 3.6 5.1 6.1 6.2 6.6 6.3 6.7 7.0 7.8 8.5 8.3 7.3 6.2 5.8 7.1 10.6 12.0 8.0 5.5 7.7 11.8 11.5 8.9 7.0 5.3 7.3 8.8 5.6
3.2 3.7 3.5 3.1 3.0 3.5 3.8 4.1 4.1 3.6 4.2 5.5 6.2 6.8 7.5 8.3 8.2 8.3 8.6 9.2 8.7 7.0 5.1 3.7 5.4 10.1 15.9 14.4 10.9 9.0 7.2 10.3 11.7 11.6 7.3 4.5 4.5 2.3
3.6 3.7 3.7 3.6 4.2 4.6 5.0 5.3 5.8 6.1 6.5 7.8 7.8 8.0 8.9 10.1 9.5 8.5 8.3 7.7 7.4 6.9 6.2 4.2 3.8 5.5 9.1 11.3 10.5 8.3 8.4 6.3 7.3 12.7 13.2 11.8 9.7 7.5
3.8 4.1 4.2 4.2 5.0 5.7 5.8 6.2 6.7 6.7 7.4 8.1 8.5 9.0 9.7 10.8 10.6 8.8 7.7 7.5 6.9 6.5 6.2 4.7 3.7 4.6 7.2 10.7 9.3 6.7 6.6 6.3 5.3 4.5 6.3 10.1 17.4 19.2
4.6 4.5 4.5 4.7 5.4 6.1 6.6 6.8 7.5 7.7 8.1 9.5 9.7 9.5 9.7 9.7 8.3 8.0 7.9 7.7 7.9 7.3 6.7 6.4 5.5 5.5 6.2 7.2 8.0 7.3 6.3 5.6 5.2 5.5 6.9 5.0 4.8 5.7